Tracking 28792 objects as of 25-Apr-2024
HD Live streaming from Space Station
objects crossing your sky now

DEWASAT-1

Track DEWASAT-1 now!
10-day predictions


NORAD ID: 51067
Int'l Code: 2022-002CM
Perigee: 451.7 km
Apogee: 458.1 km
Inclination: 97.4 °
Period: 93.5 minutes
Semi major axis: 6825 km
RCS: Unknown
Launch date: January 13, 2022
Source: United Arab Emirates (UAE)
Launch site: AIR FORCE EASTERN TEST RANGE (AFETR)
Your satellite tracking list
Your tracking list is empty




NASA's NSSDC Master Catalog

Two Line Element Set (TLE):
1 51067U 22002CM  24116.19741148  .00056615  00000-0  14377-2 0  9991
2 51067  97.3907 186.1227 0004713 210.1330 149.9646 15.39449275126511
Source of the keplerian elements: AFSPC